Regional Weather Roundup
Issued by NWS Goodland, KS

Home | Current Version | Previous Version | Text Only | Print | Product List | Glossary Off
Versions: 1 2 3 4 5 6 7 8 9 10 11 12 13 14 15 16 17 18 19 20 21 22 23 24 25 26 27 28 29 30 31 32 33 34 35 36 37 38 39 40 41 42 43 44 45 46 47 48 49 50

000
ASUS43 KGLD 282059
RWRGLD

GOODLAND FORECAST AREA HOURLY WEATHER ROUNDUP
NATIONAL WEATHER SERVICE GOODLAND KS
200 PM MST SUN DEC 28 2014

...OFFICIAL OBSERVATIONS...

CITY           SKY/WX    TMP DP  RH WIND       PRES   REMARKS
GOODLAND KS    CLOUDY    32  24  72 E5        29.92S
HILL CITY KS   CLOUDY    36  22  56 CALM      30.01F
IMPERIAL NEB   PTSUNNY   27  15  61 SE7       29.94S
MCCOOK NEB     CLOUDY    26  17  68 E8        29.98F
AKRON CO       PTSUNNY   22  14  71 NW3       29.85F
BURLINGTON CO  PTSUNNY   34  19  54 S9        29.87S
LIMON CO       SUNNY     35  14  42 N9        29.82F
$$

...UNOFFICIAL OBSERVATIONS...

CITY           SKY/WX    TMP DP  RH WIND       PRES   REMARKS
COLBY KS       CLOUDY    32  28  86 E10       29.95S
NORTON KS      CLOUDY    34  19  55 CALM      29.99F
SHARON SPRINGS   N/A     34  25  70 CALM        N/A
TRIBUNE KS     PTSUNNY   39  30  70 SE6       29.91F
KIT CARSON CO    N/A     33  16  49 MISG        N/A
YUMA CO          N/A     29  19  64 CALM        N/A
$$



USA.gov is the U.S. government's official web portal to all federal, state and local government web resources and services.